Wind_Speed
44 45 50 49 52 53 52 56 54 49 49 49 51 56 62 67 73 80 89 90 92 97 101 104 104 105 104 101 97 97 88 77 79 84 81 90 83 78 85 78 72 73 65 69 65
46 50 49 50 53 57 59 59 59 58 61 48 54 47 51 56 64 63 74 83 91 96 102 106 108 110 109 107 106 104 94 85 86 87 95 94 86 81 86 83 77 80 70 75 69
50 54 57 61 63 64 63 66 64 69 72 68 68 52 51 57 60 63 68 75 82 90 96 105 111 111 112 111 106 103 97 98 94 92 93 97 89 86 88 84 85 84 79 78 74
57 62 65 69 69 68 71 73 73 76 78 75 77 69 56 52 59 63 69 75 81 85 88 93 102 113 115 113 113 109 98 102 103 100 99 93 95 92 94 93 86 87 84 84 79
59 65 71 71 73 77 77 78 78 81 81 84 86 88 77 60 56 66 70 77 84 85 90 91 90 94 97 106 113 107 102 105 106 107 104 96 95 99 98 96 88 85 90 90 86
60 66 73 73 76 78 81 85 83 83 84 93 96 98 94 79 68 66 72 79 82 87 90 87 80 79 78 86 96 97 103 107 106 109 107 100 101 102 100 101 94 90 93 91 91
63 66 73 75 76 84 85 88 86 84 92 97 100 100 99 87 76 71 71 78 83 84 85 85 80 74 71 74 77 86 94 101 108 108 104 104 107 100 103 102 99 95 95 91 91
65 68 73 77 80 87 85 89 91 92 95 103 102 103 103 92 79 76 77 78 78 76 76 76 74 71 70 69 68 74 82 90 91 100 104 107 108 107 105 102 102 98 99 97 93
67 69 74 77 82 86 89 92 94 97 102 104 106 107 107 92 83 79 80 77 74 70 67 67 67 67 64 68 66 68 71 77 84 94 102 103 113 114 109 108 108 103 98 101 98
69 70 76 78 84 87 90 95 96 98 105 106 108 113 109 94 87 82 79 73 66 61 60 58 56 57 58 63 61 60 65 71 83 92 91 101 111 121 117 115 114 109 104 103 100
69 70 78 79 87 89 91 98 99 100 107 109 115 117 106 92 89 83 72 64 58 54 51 49 49 54 56 54 64 63 66 72 77 90 92 93 110 125 124 121 118 115 109 106 103
68 74 77 84 93 94 96 101 102 104 107 111 118 119 103 91 84 76 70 62 55 46 42 42 44 44 48 51 57 59 64 69 75 87 90 98 102 121 127 124 123 122 115 113 108
68 76 78 87 94 94 96 99 103 107 115 114 121 116 103 95 86 76 66 60 48 40 37 36 36 39 42 48 53 58 63 69 76 80 82 95 102 113 123 127 130 127 120 118 114
72 76 80 91 93 94 98 100 107 110 115 118 123 122 106 96 83 74 61 49 40 33 28 29 30 34 39 46 51 53 63 70 75 78 80 93 102 110 114 127 128 129 125 122 120
74 77 87 92 90 95 97 100 106 111 118 117 120 123 105 94 81 70 55 42 33 27 23 23 25 32 38 43 49 56 62 66 72 74 83 92 98 99 104 109 125 129 128 126 125
77 84 89 89 93 95 98 101 107 112 115 118 126 122 105 92 81 67 50 38 28 24 21 21 22 31 35 39 45 53 55 61 68 74 78 85 89 94 95 100 111 124 124 125 127
79 83 85 88 91 95 99 102 109 113 117 121 125 123 103 91 78 61 46 35 27 22 20 18 19 25 30 31 38 45 52 57 63 64 67 75 80 88 89 94 99 105 117 125 124
77 81 85 90 92 94 97 102 107 112 117 122 129 124 104 88 75 58 43 32 26 19 17 15 18 21 28 32 39 44 49 51 54 58 66 69 72 76 84 88 92 97 104 112 121
77 85 88 90 93 94 98 103 106 111 113 119 128 124 103 87 72 53 41 29 23 18 14 14 15 19 26 32 35 41 43 45 49 54 64 68 71 73 79 82 85 91 97 100 104
76 80 85 90 91 93 99 103 107 111 115 119 124 125 103 87 68 50 38 28 22 18 15 13 14 16 23 30 34 35 36 39 43 51 60 64 67 65 71 74 77 82 86 89 94
79 83 86 88 91 95 98 103 107 110 116 116 124 129 104 85 64 47 37 28 23 19 15 13 12 15 21 27 31 34 34 36 38 45 50 54 58 63 65 69 73 77 80 82 85
83 86 88 89 93 96 99 102 105 109 114 115 123 129 106 83 62 47 36 28 22 19 13 13 13 15 19 25 29 31 31 32 34 37 42 48 52 57 59 63 66 69 74 77 78
85 89 90 91 94 97 100 103 105 112 112 114 122 125 107 82 60 46 35 27 21 17 13 14 13 15 19 24 28 30 30 29 30 32 35 41 47 52 54 56 59 64 67 69 72
88 89 91 92 95 95 98 101 106 110 113 115 121 119 112 82 59 45 32 24 19 16 12 13 15 14 17 21 27 27 26 25 25 27 30 35 41 47 51 53 55 57 60 63 64
89 90 91 89 95 93 96 104 107 110 113 114 119 119 114 82 59 43 29 22 16 14 11 13 15 15 16 21 26 27 25 23 23 25 28 32 36 41 45 48 51 53 55 57 59
91 91 92 89 92 95 97 102 109 111 113 114 120 121 107 80 58 41 27 19 15 12 11 12 14 15 15 19 23 25 24 22 21 23 26 29 33 37 42 46 48 49 50 51 52
90 90 88 87 93 94 99 104 108 112 114 116 117 118 104 77 55 39 26 18 13 9 9 10 12 14 15 19 23 25 25 22 19 20 23 27 29 33 37 41 43 45 45 46 47
Wind_Direction
347 345 339 337 337 336 338 336 335 331 320 310 301 293 285 275 271 264 263 254 254 254 254 253 251 248 246 246 245 245 243 239 238 235 234 236 236 233 234 231 229 232 228 231 231
343 340 339 336 336 334 335 341 341 338 341 327 322 310 302 286 280 275 265 259 258 255 252 249 250 248 248 245 245 242 239 238 237 235 233 234 234 232 236 232 229 231 228 231 231
345 344 342 338 337 333 334 336 337 339 340 338 337 321 303 287 277 275 272 268 263 257 254 251 250 246 246 246 245 242 238 234 235 234 234 232 233 232 235 233 230 229 227 229 231
337 338 340 342 342 338 339 336 337 338 338 339 336 333 318 301 285 273 267 267 267 264 261 257 253 250 248 247 246 244 236 234 231 231 232 230 231 230 230 232 230 230 228 228 229
330 337 339 340 340 342 339 339 338 339 339 338 340 339 334 314 301 289 275 268 266 265 262 261 258 255 253 250 247 247 241 236 231 229 230 228 229 228 229 231 229 229 229 227 228
326 329 337 337 341 340 340 340 336 337 338 338 338 337 335 326 308 293 283 277 271 269 268 268 267 263 258 252 251 248 242 239 236 231 227 225 228 228 228 229 228 226 230 230 228
323 327 335 337 339 339 339 339 337 336 338 337 339 335 333 327 312 299 289 282 279 277 275 273 272 267 261 256 249 246 244 241 236 233 228 223 225 227 227 226 228 227 230 230 229
325 322 334 334 336 337 336 337 337 336 337 340 339 336 336 328 317 307 298 291 287 283 277 272 269 265 261 253 247 243 239 240 239 235 231 223 224 225 226 224 225 226 227 229 229
323 325 331 331 333 335 335 334 334 334 335 336 338 335 336 328 317 309 303 300 295 289 281 273 266 261 256 253 246 239 236 232 234 233 229 225 221 225 223 223 224 224 225 228 229
320 325 327 329 330 332 332 332 332 333 332 335 336 335 336 329 319 314 309 305 300 291 282 273 265 258 252 247 245 237 233 228 226 230 226 225 220 223 221 222 223 224 224 226 228
315 322 326 325 328 328 328 330 330 331 331 335 336 337 336 328 321 319 314 310 305 294 282 274 264 253 248 244 240 233 229 224 222 225 222 222 221 220 222 221 222 223 224 224 226
318 320 324 323 328 327 328 326 329 331 333 335 337 339 337 328 326 326 321 317 309 299 286 273 263 255 246 240 238 234 229 225 222 222 218 218 219 220 219 220 222 224 223 224 225
317 322 319 322 325 326 327 326 328 332 333 336 339 342 339 332 332 330 325 318 311 299 285 273 261 251 243 237 233 229 226 224 223 221 216 218 218 221 217 218 222 224 223 225 226
316 321 317 323 324 326 327 327 328 331 334 337 341 345 341 335 335 332 325 318 310 300 287 271 259 248 239 233 230 225 225 222 221 220 216 217 220 222 221 217 220 224 223 226 227
316 316 317 321 324 326 327 329 330 332 335 338 342 345 341 336 337 334 328 321 315 306 292 273 257 244 235 230 226 222 222 222 220 218 217 218 220 222 224 221 219 222 223 224 228
313 314 315 321 323 327 328 330 331 334 335 339 343 347 341 339 338 333 329 325 319 308 293 273 251 244 235 226 225 225 223 222 221 217 217 219 220 224 223 222 222 222 224 225 227
314 314 318 320 323 326 328 329 332 334 336 341 344 348 343 341 338 333 331 328 325 314 297 276 250 236 233 219 219 219 221 221 222 218 219 219 219 222 223 223 223 224 225 226 227
314 317 319 322 323 326 328 330 333 335 337 341 345 349 345 342 339 334 333 330 329 319 299 284 260 232 227 217 213 218 219 219 221 219 219 219 219 221 223 223 223 224 226 227 228
316 317 318 320 324 325 328 331 334 336 339 343 347 349 346 343 338 335 335 332 329 320 302 280 262 238 218 220 217 218 219 220 220 219 220 218 219 218 220 223 223 224 226 227 228
321 323 324 323 324 327 328 332 334 336 340 343 347 350 346 342 339 336 335 332 324 313 299 280 269 239 223 216 218 219 222 223 221 218 218 218 220 220 222 223 224 225 227 228 230
321 325 326 324 324 327 330 331 334 337 340 343 345 349 347 342 339 336 335 331 322 308 291 275 262 242 223 218 217 217 219 222 222 222 220 219 219 221 222 222 223 225 228 229 230
314 321 325 328 329 329 331 331 334 336 339 343 345 347 347 342 338 335 333 329 322 308 293 268 253 246 229 218 214 215 220 222 221 222 220 220 218 222 222 223 224 225 227 229 230
313 317 322 327 329 331 331 331 334 335 338 341 344 347 347 342 338 333 328 324 319 304 293 272 249 241 229 221 214 214 219 223 221 219 218 217 217 219 221 222 223 225 228 230 232
315 317 320 326 328 330 330 331 332 334 336 339 343 346 347 342 338 334 326 319 314 300 289 268 247 238 229 220 217 215 216 217 220 218 215 215 217 218 219 220 223 225 227 229 232
316 318 319 325 325 327 330 329 330 332 335 337 341 343 346 342 339 335 328 317 308 293 279 263 243 233 223 217 212 210 211 212 213 212 213 215 216 217 219 220 221 224 226 227 229
315 316 318 322 323 326 327 329 328 330 333 335 338 343 346 342 338 337 331 317 302 290 274 261 242 235 225 213 210 211 211 211 212 209 211 211 213 215 217 219 221 223 226 229 232
313 314 316 320 322 324 324 325 326 328 332 334 339 343 345 341 338 339 334 318 302 290 278 261 236 233 225 220 212 206 205 206 204 203 205 207 209 212 215 218 220 223 226 230 233
Height
10691 10686 10681 10675 10668 10662 10656 10650 10641 10635 10628 10617 10606 10598 10590 10586 10581 10575 10572 10571 10570 10571 10572 10574 10581 10583 10587 10597 10603 10604 10622 10646 10649 10651 10658 10645 10662 10679 10677 10690 10703 10706 10723 10716 10727
10686 10680 10674 10667 10660 10653 10645 10637 10627 10620 10613 10604 10594 10583 10574 10563 10557 10554 10538 10541 10541 10538 10537 10537 10544 10550 10555 10566 10572 10577 10596 10623 10619 10624 10627 10625 10647 10662 10660 10676 10689 10691 10710 10704 10717
10677 10670 10664 10657 10650 10640 10632 10623 10614 10605 10596 10588 10579 10565 10555 10545 10537 10535 10518 10514 10512 10510 10508 10507 10510 10515 10524 10532 10546 10553 10580 10585 10593 10598 10601 10614 10631 10644 10644 10658 10670 10676 10691 10693 10703
10669 10661 10653 10644 10637 10628 10618 10609 10600 10589 10580 10571 10562 10550 10536 10526 10513 10511 10503 10491 10483 10480 10479 10476 10476 10483 10491 10505 10510 10517 10548 10555 10565 10572 10575 10596 10608 10619 10626 10633 10653 10666 10675 10680 10688
10660 10651 10643 10635 10627 10617 10608 10597 10587 10575 10565 10557 10545 10531 10518 10507 10498 10480 10477 10469 10458 10455 10448 10444 10448 10450 10463 10473 10478 10494 10525 10522 10533 10541 10553 10578 10586 10595 10608 10619 10637 10652 10650 10662 10672
10652 10644 10636 10626 10617 10608 10598 10586 10575 10563 10553 10541 10526 10514 10497 10484 10471 10460 10449 10440 10433 10427 10420 10419 10423 10426 10438 10445 10451 10472 10485 10494 10509 10515 10533 10558 10563 10571 10588 10602 10617 10631 10631 10648 10659
10644 10636 10627 10618 10608 10597 10586 10576 10563 10550 10537 10526 10510 10497 10479 10459 10443 10432 10423 10411 10404 10401 10399 10395 10396 10399 10406 10415 10427 10440 10449 10464 10477 10494 10518 10538 10540 10559 10567 10583 10599 10612 10618 10630 10641
10636 10628 10618 10609 10599 10588 10576 10564 10551 10535 10523 10510 10495 10477 10458 10433 10418 10403 10392 10382 10377 10373 10371 10365 10367 10373 10378 10383 10396 10409 10418 10431 10457 10476 10493 10513 10530 10534 10547 10564 10575 10589 10600 10611 10624
10627 10619 10609 10599 10590 10579 10566 10554 10542 10524 10506 10495 10477 10462 10437 10415 10395 10380 10363 10354 10346 10341 10339 10338 10341 10344 10353 10358 10367 10382 10400 10415 10431 10438 10461 10483 10501 10509 10527 10540 10549 10569 10583 10592 10607
10618 10609 10600 10590 10580 10570 10558 10545 10529 10515 10492 10485 10467 10439 10414 10390 10369 10354 10337 10326 10318 10313 10310 10311 10315 10320 10326 10333 10346 10360 10371 10386 10397 10408 10431 10450 10474 10478 10501 10514 10528 10549 10565 10574 10589
10608 10599 10590 10580 10570 10559 10548 10535 10521 10508 10482 10469 10444 10418 10394 10367 10341 10325 10314 10300 10294 10288 10286 10287 10290 10293 10301 10314 10317 10332 10348 10360 10374 10380 10405 10425 10438 10447 10470 10494 10509 10524 10542 10557 10567
10598 10590 10579 10569 10557 10545 10531 10516 10502 10487 10479 10455 10430 10400 10372 10348 10329 10306 10288 10279 10274 10269 10266 10266 10268 10275 10283 10294 10302 10317 10331 10343 10353 10359 10384 10395 10409 10419 10444 10475 10487 10498 10523 10533 10550
10589 10580 10568 10559 10545 10532 10519 10502 10486 10471 10452 10438 10412 10384 10352 10326 10305 10290 10275 10264 10257 10253 10251 10251 10253 10257 10266 10275 10286 10300 10313 10323 10333 10347 10369 10381 10390 10396 10428 10447 10458 10479 10506 10514 10531
10579 10569 10559 10546 10534 10519 10506 10489 10471 10455 10439 10413 10390 10354 10331 10310 10291 10276 10263 10254 10246 10241 10238 10238 10241 10246 10253 10260 10270 10286 10292 10303 10316 10333 10353 10357 10370 10382 10404 10421 10444 10461 10486 10498 10509
10569 10559 10547 10535 10524 10509 10493 10478 10461 10441 10417 10402 10378 10349 10320 10296 10280 10265 10255 10244 10238 10232 10230 10230 10234 10236 10242 10249 10258 10266 10276 10290 10303 10318 10326 10340 10352 10374 10386 10412 10426 10435 10455 10477 10490
10558 10549 10536 10522 10510 10499 10483 10466 10448 10432 10413 10391 10361 10336 10308 10287 10270 10256 10247 10237 10232 10227 10224 10225 10230 10228 10234 10243 10251 10258 10269 10279 10288 10301 10317 10331 10347 10355 10376 10392 10402 10422 10442 10460 10472
10547 10536 10526 10515 10502 10487 10472 10457 10436 10422 10398 10378 10356 10328 10299 10278 10263 10251 10242 10232 10227 10222 10219 10220 10223 10225 10228 10238 10245 10253 10261 10270 10279 10300 10313 10323 10338 10346 10365 10377 10393 10412 10424 10436 10450
10536 10526 10515 10503 10490 10478 10463 10445 10428 10407 10383 10361 10342 10314 10292 10274 10258 10245 10236 10228 10223 10220 10216 10217 10218 10222 10224 10230 10238 10243 10251 10263 10275 10288 10297 10310 10325 10342 10350 10363 10378 10392 10402 10415 10433
10526 10515 10504 10492 10479 10466 10450 10436 10418 10397 10382 10358 10332 10307 10287 10268 10253 10243 10232 10226 10221 10218 10216 10216 10216 10218 10223 10226 10233 10241 10249 10259 10269 10278 10285 10297 10309 10323 10332 10347 10364 10375 10385 10400 10414
10517 10505 10493 10480 10467 10455 10440 10423 10404 10386 10368 10347 10328 10306 10283 10264 10251 10239 10230 10224 10219 10217 10214 10214 10215 10217 10220 10225 10231 10238 10246 10253 10260 10268 10274 10287 10301 10318 10325 10338 10351 10361 10372 10386 10398
10506 10495 10484 10471 10458 10444 10428 10411 10395 10378 10362 10343 10323 10302 10280 10261 10249 10238 10228 10222 10218 10214 10213 10212 10213 10214 10217 10222 10228 10235 10241 10247 10254 10260 10270 10285 10297 10303 10315 10327 10338 10350 10361 10373 10385
10496 10484 10472 10459 10447 10434 10419 10402 10387 10369 10353 10336 10317 10298 10275 10260 10248 10236 10227 10220 10216 10212 10210 10210 10210 10212 10216 10220 10225 10231 10237 10242 10249 10257 10267 10277 10289 10297 10307 10317 10330 10340 10351 10361 10373
10483 10472 10460 10448 10435 10423 10409 10394 10378 10361 10346 10330 10314 10294 10272 10257 10245 10234 10224 10217 10214 10210 10208 10208 10209 10210 10214 10218 10223 10228 10234 10240 10246 10253 10262 10272 10281 10289 10299 10309 10321 10331 10340 10351 10361
10469 10460 10448 10436 10424 10412 10399 10384 10370 10354 10340 10325 10310 10289 10270 10252 10240 10229 10221 10215 10211 10209 10207 10206 10207 10209 10213 10218 10222 10228 10233 10239 10245 10252 10259 10266 10274 10282 10291 10301 10311 10321 10331 10340 10350
10456 10446 10436 10425 10413 10402 10390 10376 10361 10347 10334 10320 10304 10286 10266 10249 10236 10225 10217 10211 10209 10207 10205 10205 10205 10207 10211 10216 10221 10226 10231 10236 10242 10248 10255 10261 10269 10277 10285 10294 10303 10312 10320 10330 10339
10445 10435 10424 10415 10403 10390 10379 10366 10352 10338 10326 10312 10298 10282 10262 10246 10233 10222 10214 10209 10206 10205 10203 10203 10205 10207 10211 10214 10219 10224 10230 10235 10240 10245 10251 10257 10263 10270 10278 10286 10295 10304 10313 10322 10331
10434 10425 10415 10405 10394 10381 10369 10356 10342 10329 10319 10306 10292 10276 10261 10244 10231 10219 10212 10207 10205 10204 10203 10203 10205 10207 10210 10213 10217 10223 10228 10233 10238 10243 10248 10253 10259 10265 10273 10282 10290 10299 10308 10316 10325